Time,TemperatureF,DewpointF,PressureIn,WindDirection,WindDirectionDegrees,WindSpeedMPH,WindSpeedGustMPH,Humidity,HourlyPrecipIn,Conditions,Clouds,dailyrainin,SoftwareType,DateUTC
2013-03-21 00:00:00,51.5,35.0,30.04,NNE,26,0.0,-999.0,54,-99.99,,,0.23,weatherlink.com 1.10,2013-03-21 05:00:00,
2013-03-21 00:15:00,50.4,35.0,30.04,NNE,26,0.0,-999.0,55,-99.99,,,0.00,weatherlink.com 1.10,2013-03-21 05:15:00,
2013-03-21 00:30:00,50.0,35.0,30.03,NNE,26,0.0,-999.0,56,-99.99,,,0.00,weatherlink.com 1.10,2013-03-21 05:30:00,
2013-03-21 00:45:00,49.6,35.0,30.03,NNE,25,0.0,-999.0,58,-99.99,,,0.00,weatherlink.com 1.10,2013-03-21 05:45:00,
2013-03-21 01:00:00,48.8,34.0,30.02,NNE,26,0.0,-999.0,57,-99.99,,,0.00,weatherlink.com 1.10,2013-03-21 06:00:00,
2013-03-21 01:15:00,48.0,34.0,30.02,NNE,25,0.0,-999.0,58,-99.99,,,0.00,weatherlink.com 1.10,2013-03-21 06:15:00,
2013-03-21 01:30:00,47.4,34.0,30.02,NNE,26,0.0,-999.0,60,-99.99,,,0.00,weatherlink.com 1.10,2013-03-21 06:30:00,
2013-03-21 01:45:00,46.8,34.0,30.01,NNE,25,0.0,-999.0,62,-99.99,,,0.00,weatherlink.com 1.10,2013-03-21 06:45:00,
2013-03-21 02:00:00,46.3,35.0,30.00,NNE,25,0.0,-999.0,64,-99.99,,,0.00,weatherlink.com 1.10,2013-03-21 07:00:00,
2013-03-21 02:15:00,45.9,34.0,30.00,NNE,25,0.0,-999.0,64,-99.99,,,0.00,weatherlink.com 1.10,2013-03-21 07:15:00,
2013-03-21 02:30:00,45.8,35.0,29.99,NNE,25,0.0,-999.0,65,-99.99,,,0.00,weatherlink.com 1.10,2013-03-21 07:30:00,
2013-03-21 02:45:00,45.8,35.0,29.99,NNE,25,0.0,-999.0,66,-99.99,,,0.00,weatherlink.com 1.10,2013-03-21 07:45:00,
2013-03-21 03:00:00,46.1,35.0,29.99,NNE,26,0.0,-999.0,65,-99.99,,,0.00,weatherlink.com 1.10,2013-03-21 08:00:00,
2013-03-21 03:15:00,46.2,35.0,29.98,NNE,25,0.0,-999.0,65,-99.99,,,0.00,weatherlink.com 1.10,2013-03-21 08:15:00,
2013-03-21 03:30:00,46.1,35.0,29.98,NNE,26,0.0,-999.0,66,-99.99,,,0.00,weatherlink.com 1.10,2013-03-21 08:30:00,
2013-03-21 03:45:00,46.4,35.0,29.97,NNE,25,0.0,-999.0,65,-99.99,,,0.00,weatherlink.com 1.10,2013-03-21 08:45:00,
2013-03-21 04:00:00,47.8,36.0,29.97,NNE,26,0.0,-999.0,64,-99.99,,,0.00,weatherlink.com 1.10,2013-03-21 09:00:00,
2013-03-21 04:15:00,47.8,37.0,29.97,NNE,26,0.0,-999.0,66,-99.99,,,0.00,weatherlink.com 1.10,2013-03-21 09:15:00,
2013-03-21 04:30:00,46.4,36.0,29.97,NNE,26,0.0,-999.0,67,-99.99,,,0.00,weatherlink.com 1.10,2013-03-21 09:30:00,
2013-03-21 04:45:00,45.0,35.0,29.96,NNE,26,0.0,-999.0,67,-99.99,,,0.00,weatherlink.com 1.10,2013-03-21 09:45:00,
2013-03-21 05:00:00,46.1,36.0,29.95,NNE,27,0.0,-999.0,67,-99.99,,,0.00,weatherlink.com 1.10,2013-03-21 10:00:00,
2013-03-21 05:15:00,45.0,35.0,29.95,NNE,27,0.0,-999.0,69,-99.99,,,0.00,weatherlink.com 1.10,2013-03-21 10:15:00,
2013-03-21 05:30:00,45.4,36.0,29.95,NNE,27,0.0,-999.0,69,-99.99,,,0.00,weatherlink.com 1.10,2013-03-21 10:30:00,
2013-03-21 05:45:00,45.7,36.0,29.95,NNE,27,0.0,-999.0,69,-99.99,,,0.00,weatherlink.com 1.10,2013-03-21 10:45:00,
2013-03-21 06:00:00,45.9,37.0,29.95,NNE,26,0.0,-999.0,71,-99.99,,,0.00,weatherlink.com 1.10,2013-03-21 11:00:00,
2013-03-21 06:15:00,46.7,38.0,29.94,NNE,26,0.0,-999.0,72,-99.99,,,0.00,weatherlink.com 1.10,2013-03-21 11:15:00,
2013-03-21 06:30:00,47.1,38.0,29.94,SE,138,0.0,-999.0,70,-99.99,,,0.00,weatherlink.com 1.10,2013-03-21 11:30:00,
2013-03-21 06:45:00,48.0,38.0,29.94,ESE,122,0.0,-999.0,69,-99.99,,,0.00,weatherlink.com 1.10,2013-03-21 11:45:00,
2013-03-21 07:00:00,48.9,39.0,29.95,ESE,122,0.0,-999.0,68,-99.99,,,0.00,weatherlink.com 1.10,2013-03-21 12:00:00,
2013-03-21 07:15:00,50.0,38.0,29.94,SE,129,0.0,-999.0,64,-99.99,,,0.00,weatherlink.com 1.10,2013-03-21 12:15:00,
2013-03-21 07:30:00,50.7,38.0,29.93,SSE,150,2.0,-999.0,62,-99.99,,,0.00,weatherlink.com 1.10,2013-03-21 12:30:00,
2013-03-21 07:45:00,50.5,39.0,29.94,ESE,109,3.0,-999.0,65,-99.99,,,0.00,weatherlink.com 1.10,2013-03-21 12:45:00,
2013-03-21 08:00:00,49.8,39.0,29.94,East,83,0.0,-999.0,66,-99.99,,,0.00,weatherlink.com 1.10,2013-03-21 13:00:00,
2013-03-21 08:15:00,50.0,39.0,29.94,East,84,0.0,-999.0,66,-99.99,,,0.00,weatherlink.com 1.10,2013-03-21 13:15:00,
2013-03-21 08:30:00,50.5,39.0,29.94,East,83,0.0,-999.0,66,-99.99,,,0.00,weatherlink.com 1.10,2013-03-21 13:30:00,
2013-03-21 08:45:00,51.1,40.0,29.94,East,84,0.0,-999.0,65,-99.99,,,0.00,weatherlink.com 1.10,2013-03-21 13:45:00,
2013-03-21 09:00:00,51.7,40.0,29.94,East,84,0.0,-999.0,65,-99.99,,,0.00,weatherlink.com 1.10,2013-03-21 14:00:00,
2013-03-21 09:16:00,52.2,40.0,29.94,East,84,0.0,-999.0,64,-99.99,,,0.00,weatherlink.com 1.10,2013-03-21 14:16:00,
2013-03-21 09:31:00,53.6,42.0,29.94,SSE,152,3.0,-999.0,64,-99.99,,,0.00,weatherlink.com 1.10,2013-03-21 14:31:00,
2013-03-21 09:46:00,55.4,43.0,29.93,SSE,161,1.0,-999.0,63,-99.99,,,0.00,weatherlink.com 1.10,2013-03-21 14:46:00,
2013-03-21 10:16:00,59.0,46.0,29.92,ESE,118,5.0,-999.0,62,-99.99,,,0.00,weatherlink.com 1.10,2013-03-21 15:16:00,
2013-03-21 10:31:00,59.5,46.0,29.91,SSE,160,5.0,-999.0,61,-99.99,,,0.00,weatherlink.com 1.10,2013-03-21 15:31:00,
2013-03-21 10:46:00,61.1,47.0,29.90,SE,132,2.0,-999.0,61,-99.99,,,0.00,weatherlink.com 1.10,2013-03-21 15:46:00,
2013-03-21 11:01:00,63.0,49.0,29.90,ESE,121,7.0,-999.0,60,-99.99,,,0.00,weatherlink.com 1.10,2013-03-21 16:01:00,
2013-03-21 11:16:00,62.8,49.0,29.89,SSE,155,6.0,-999.0,60,-99.99,,,0.00,weatherlink.com 1.10,2013-03-21 16:16:00,
2013-03-21 12:01:00,65.4,50.0,29.86,ESE,103,6.0,-999.0,57,-99.99,,,0.00,weatherlink.com 1.10,2013-03-21 17:01:00,
2013-03-21 12:16:00,66.5,50.0,29.85,SSE,165,9.0,-999.0,56,-99.99,,,0.00,weatherlink.com 1.10,2013-03-21 17:16:00,
2013-03-21 12:31:00,67.2,50.0,29.85,SE,125,7.0,-999.0,55,-99.99,,,0.00,weatherlink.com 1.10,2013-03-21 17:31:00,
2013-03-21 13:01:00,70.1,50.0,29.82,SSE,159,18.0,-999.0,49,-99.99,,,0.00,weatherlink.com 1.10,2013-03-21 18:01:00,
2013-03-21 13:16:00,69.7,49.0,29.81,South,173,12.0,-999.0,48,-99.99,,,0.00,weatherlink.com 1.10,2013-03-21 18:16:00,
2013-03-21 13:31:00,69.5,49.0,29.80,South,173,6.0,-999.0,48,-99.99,,,0.00,weatherlink.com 1.10,2013-03-21 18:31:00,
2013-03-21 13:46:00,70.3,48.0,29.78,South,175,9.0,-999.0,46,-99.99,,,0.00,weatherlink.com 1.10,2013-03-21 18:46:00,
2013-03-21 14:01:00,71.3,50.0,29.77,South,182,7.0,-999.0,47,-99.99,,,0.00,weatherlink.com 1.10,2013-03-21 19:01:00,
2013-03-21 14:17:00,70.6,50.0,29.76,South,173,14.0,-999.0,48,-99.99,,,0.00,weatherlink.com 1.10,2013-03-21 19:17:00,
2013-03-21 14:32:00,71.0,50.0,29.75,South,182,10.0,-999.0,48,-99.99,,,0.00,weatherlink.com 1.10,2013-03-21 19:32:00,
2013-03-21 14:47:00,70.4,51.0,29.74,SSW,195,8.0,-999.0,50,-99.99,,,0.00,weatherlink.com 1.10,2013-03-21 19:47:00,
2013-03-21 15:02:00,69.6,51.0,29.73,South,180,10.0,-999.0,52,-99.99,,,0.00,weatherlink.com 1.10,2013-03-21 20:02:00,
2013-03-21 15:17:00,69.0,51.0,29.72,South,175,15.0,-999.0,53,-99.99,,,0.00,weatherlink.com 1.10,2013-03-21 20:17:00,
2013-03-21 15:47:00,68.7,52.0,29.71,SSE,160,5.0,-999.0,55,-99.99,,,0.00,weatherlink.com 1.10,2013-03-21 20:47:00,
2013-03-21 16:02:00,69.0,52.0,29.70,South,187,7.0,-999.0,55,-99.99,,,0.00,weatherlink.com 1.10,2013-03-21 21:02:00,
2013-03-21 16:17:00,69.0,52.0,29.69,South,169,6.0,-999.0,55,-99.99,,,0.00,weatherlink.com 1.10,2013-03-21 21:17:00,
2013-03-21 16:32:00,68.9,52.0,29.68,South,171,6.0,-999.0,55,-99.99,,,0.00,weatherlink.com 1.10,2013-03-21 21:32:00,
2013-03-21 16:47:00,69.1,53.0,29.67,South,171,7.0,-999.0,56,-99.99,,,0.00,weatherlink.com 1.10,2013-03-21 21:47:00,
2013-03-21 17:02:00,68.8,53.0,29.67,South,181,10.0,-999.0,57,-99.99,,,0.00,weatherlink.com 1.10,2013-03-21 22:02:00,
2013-03-21 17:32:00,68.4,53.0,29.66,South,178,3.0,-999.0,58,-99.99,,,0.00,weatherlink.com 1.10,2013-03-21 22:32:00,
2013-03-21 17:47:00,68.4,53.0,29.65,SSE,150,4.0,-999.0,59,-99.99,,,0.00,weatherlink.com 1.10,2013-03-21 22:47:00,
2013-03-21 18:02:00,68.4,54.0,29.64,SSE,154,6.0,-999.0,60,-99.99,,,0.00,weatherlink.com 1.10,2013-03-21 23:02:00,
2013-03-21 18:17:00,68.2,54.0,29.64,SSE,162,5.0,-999.0,60,-99.99,,,0.00,weatherlink.com 1.10,2013-03-21 23:17:00,
2013-03-21 18:32:00,68.1,54.0,29.64,SE,142,4.0,-999.0,61,-99.99,,,0.00,weatherlink.com 1.10,2013-03-21 23:32:00,
2013-03-21 18:47:00,67.9,54.0,29.64,SSE,160,5.0,-999.0,62,-99.99,,,0.00,weatherlink.com 1.10,2013-03-21 23:47:00,
2013-03-21 19:02:00,67.7,55.0,29.66,South,171,3.0,-999.0,63,-99.99,,,0.00,weatherlink.com 1.10,2013-03-22 00:02:00,
2013-03-21 19:17:00,67.5,55.0,29.65,South,176,15.0,-999.0,64,-99.99,,,0.00,weatherlink.com 1.10,2013-03-22 00:17:00,
2013-03-21 19:32:00,67.4,55.0,29.65,SSE,164,5.0,-999.0,65,-99.99,,,0.00,weatherlink.com 1.10,2013-03-22 00:32:00,
2013-03-21 19:47:00,67.2,55.0,29.66,SE,137,8.0,-999.0,66,-99.99,,,0.00,weatherlink.com 1.10,2013-03-22 00:47:00,
2013-03-21 20:02:00,67.1,56.0,29.66,South,175,5.0,-999.0,67,-99.99,,,0.00,weatherlink.com 1.10,2013-03-22 01:02:00,
2013-03-21 20:17:00,66.9,56.0,29.66,SE,137,10.0,-999.0,67,-99.99,,,0.00,weatherlink.com 1.10,2013-03-22 01:17:00,
2013-03-21 20:32:00,66.6,55.0,29.67,South,175,2.0,-999.0,67,-99.99,,,0.00,weatherlink.com 1.10,2013-03-22 01:32:00,
2013-03-21 20:47:00,66.3,55.0,29.68,SSE,149,11.0,-999.0,68,-99.99,,,0.00,weatherlink.com 1.10,2013-03-22 01:47:00,
2013-03-21 21:02:00,66.1,56.0,29.68,South,172,6.0,-999.0,69,-99.99,,,0.00,weatherlink.com 1.10,2013-03-22 02:02:00,
2013-03-21 21:17:00,65.8,56.0,29.69,SE,143,6.0,-999.0,70,-99.99,,,0.00,weatherlink.com 1.10,2013-03-22 02:17:00,
2013-03-21 21:32:00,65.8,56.0,29.68,SE,146,7.0,-999.0,70,-99.99,,,0.00,weatherlink.com 1.10,2013-03-22 02:32:00,
2013-03-21 21:47:00,65.5,56.0,29.69,South,169,6.0,-999.0,72,-99.99,,,0.00,weatherlink.com 1.10,2013-03-22 02:47:00,
2013-03-21 22:02:00,65.1,56.0,29.68,SSE,157,7.0,-999.0,72,-99.99,,,0.00,weatherlink.com 1.10,2013-03-22 03:02:00,
2013-03-21 22:17:00,64.9,56.0,29.68,SE,132,10.0,-999.0,73,-99.99,,,0.00,weatherlink.com 1.10,2013-03-22 03:17:00,
2013-03-21 22:47:00,64.5,56.0,29.67,South,187,2.0,-999.0,74,-99.99,,,0.00,weatherlink.com 1.10,2013-03-22 03:47:00,
2013-03-21 23:02:00,64.5,56.0,29.67,SSE,159,6.0,-999.0,74,-99.99,,,0.00,weatherlink.com 1.10,2013-03-22 04:02:00,
2013-03-21 23:17:00,64.4,56.0,29.67,South,174,12.0,-999.0,75,-99.99,,,0.00,weatherlink.com 1.10,2013-03-22 04:17:00,
2013-03-21 23:32:00,64.3,57.0,29.67,SSE,161,6.0,-999.0,76,-99.99,,,0.00,weatherlink.com 1.10,2013-03-22 04:32:00,
2013-03-21 23:47:00,64.3,57.0,29.67,SSE,157,4.0,-999.0,77,-99.99,,,0.00,weatherlink.com 1.10,2013-03-22 04:47:00,